Location: Seattle
(47.6062°N, 122.3321°W)
Time: 20:43:39
(UTC-07:00)

ISS - Pass Details

Date: 19 May 2015
Orbit: 411 x 421 km, 51.6° (Epoch: 16 October)

Event Time Altitude Azimuth Distance (km) Brightness Sun altitude
Rises 04:19:56 0° 292° (WNW) 2,385 -0.2 -9.8°
Reaches altitude 10° 04:22:03 10° 296° (WNW) 1,521 -1.1 -9.6°
Maximum altitude 04:25:27 62° 18° (NNE) 487 -3.2 -9.1°
Drops below altitude 10° 04:28:51 10° 100° (E) 1,528 -0.4 -8.7°
Sets 04:30:59 0° 104° (ESE) 2,396 0.6 -8.5°
